FW9219 Weather Reports


Display with metric or nautical units.
time (UTC)temp
F
wind
direction
speed
MPH
gust
MPH
rain 1hr
in
rain 24hr
in
rain mn
in
humidity
%
barometer
mb
20260509091325 44 45 0.0 0.0 0.00 0.00 0.00 91 1018.0
20260509090815 44 135 0.0 0.0 0.00 0.00 0.00 90 1018.1
20260509090305 45 135 0.0 0.0 0.00 0.00 0.00 90 1017.9
20260509085754 45 135 0.0 0.0 0.00 0.00 0.00 90 1017.7
20260509085245 44 158 0.0 0.0 0.00 0.00 0.00 90 1017.9
20260509084734 44 203 0.0 0.0 0.00 0.00 0.00 90 1017.8
20260509084224 44 158 0.0 0.0 0.00 0.00 0.00 90 1017.7
20260509083204 44 203 0.0 0.0 0.00 0.00 0.00 91 1017.5
20260509082653 44 135 0.0 0.0 0.00 0.00 0.00 91 1017.5
20260509082144 44 68 0.0 0.0 0.00 0.00 0.00 91 1017.0
20260509081634 44 45 0.0 0.0 0.00 0.00 0.00 91 1017.0
20260509081124 44 45 0.0 0.0 0.00 0.00 0.00 91 1017.0
20260509080613 45 45 0.0 0.0 0.00 0.00 0.00 91 1016.9
20260509080104 45 45 0.0 0.0 0.00 0.00 0.00 90 1016.6
20260509075553 46 45 0.0 0.0 0.00 0.00 0.00 90 1016.5
20260509075043 46 315 0.0 0.0 0.00 0.00 0.00 89 1016.6
20260509073513 45 315 0.0 0.0 0.00 0.00 0.00 90 1016.3
20260509073002 45 315 0.0 0.0 0.00 0.00 0.00 90 1016.2
20260509072453 45 315 0.0 0.0 0.00 0.00 0.00 91 1015.9
20260509071942 44 45 0.0 0.0 0.00 0.00 0.00 91 1015.9
20260509070922 43 23 0.0 0.0 0.00 0.00 0.00 91 1015.6
20260509070415 43 23 0.0 0.0 0.00 0.00 0.00 91 1015.7
20260509070216 44 23 0.0 0.0 0.00 0.00 0.00 91 1015.3
20260509065649 44 90 0.0 0.0 0.00 0.00 0.00 91 1015.3
20260509065139 44 135 0.0 0.0 0.00 0.00 0.00 90 1015.3
20260509064119 44 203 0.0 0.0 0.00 0.00 0.00 89 1014.9
20260509063609 44 203 0.0 0.0 0.00 0.00 0.00 89 1014.8
20260509063059 44 180 0.0 0.0 0.00 0.00 0.00 89 1014.8
20260509062548 44 158 0.0 0.0 0.00 0.00 0.00 89 1014.8
20260509061529 44 135 0.0 0.0 0.00 0.00 0.00 90 1014.4
20260509061018 44 135 0.0 0.0 0.00 0.00 0.00 90 1014.4
20260509060508 44 135 0.0 0.0 0.00 0.00 0.00 90 1014.4
20260509055958 44 135 0.0 0.0 0.00 0.00 0.00 91 1014.3
20260509055453 43 135 0.0 0.0 0.00 0.00 0.00 91 1013.9
20260509054938 43 90 0.0 0.0 0.00 0.00 0.00 91 1013.7
20260509054428 42 158 0.0 0.0 0.00 0.00 0.00 92 1013.7
20260509052857 42 68 0.0 0.0 0.00 0.00 0.00 92 1013.4
20260509052347 41 0 0.0 0.0 0.00 0.00 0.00 92 1012.8
20260509051837 41 0 0.0 0.0 0.00 0.00 0.00 92 1013.0
20260509051327 41 45 0.0 0.0 0.00 0.00 0.00 92 1012.6
20260509050817 41 23 0.0 0.0 0.00 0.00 0.00 92 1012.8
20260509050307 41 23 0.0 0.0 0.00 0.00 0.00 92 1012.7
20260509044736 42 90 0.0 0.0 0.00 0.00 0.00 92 1012.3
20260509044226 42 0 0.0 0.0 0.00 0.00 0.00 91 1011.7
20260509043716 43 68 0.0 0.0 0.00 0.00 0.00 91 1011.7
20260509043206 42 68 0.0 0.0 0.00 0.00 0.00 91 1011.8
20260509042656 44 113 0.0 0.0 0.00 0.00 0.00 90 1011.6
20260509042146 44 113 0.0 0.0 0.00 0.00 0.00 90 1011.6
20260509041636 44 113 0.0 0.0 0.00 0.00 0.00 89 1011.5
20260509040616 46 113 0.0 0.0 0.00 0.00 0.00 89 1011.4
20260509035555 46 113 0.0 0.0 0.00 0.00 0.00 89 1010.9
20260509035045 46 113 0.0 0.0 0.00 0.00 0.00 89 1011.2
20260509034025 46 113 0.0 0.0 0.00 0.00 0.00 87 1011.3
20260509033514 46 113 0.0 0.0 0.00 0.00 0.00 86 1011.2
20260509033013 47 113 0.0 2.0 0.00 0.00 0.00 85 1011.3
20260509032455 48 158 0.0 2.0 0.00 0.00 0.00 84 1011.4
20260509031944 48 158 0.0 2.0 0.00 0.00 0.00 84 1011.3
20260509031434 48 158 0.0 0.0 0.00 0.00 0.00 84 1011.2
20260509030924 48 135 0.0 2.0 0.00 0.00 0.00 84 1011.2
20260509030414 48 135 0.0 2.0 0.00 0.00 0.00 83 1011.3
20260509025904 48 135 0.0 0.0 0.00 0.00 0.00 83 1011.3
20260509025354 48 225 0.0 0.0 0.00 0.00 0.00 84 1011.3
20260509024844 48 225 0.0 0.0 0.00 0.00 0.00 83 1011.3
20260509024333 48 225 0.0 0.0 0.00 0.00 0.00 83 1011.3
20260509023823 49 225 0.0 0.0 0.00 0.00 0.00 83 1011.2
20260509023313 49 203 0.0 0.0 0.00 0.00 0.00 82 1011.2
20260509022803 49 225 0.0 0.0 0.00 0.00 0.00 82 1011.3
20260509022253 49 225 0.0 0.0 0.00 0.00 0.00 81 1011.5
20260509021743 49 225 0.0 2.0 0.00 0.00 0.00 81 1011.4
20260509021238 49 203 0.0 2.0 0.00 0.00 0.00 81 1011.6
20260509020723 49 248 0.0 2.0 0.00 0.00 0.00 81 1011.5
20260509020212 49 225 0.0 2.0 0.00 0.00 0.00 82 1011.5
20260509015703 49 203 1.0 2.0 0.00 0.00 0.00 82 1011.4
20260509015152 49 158 0.0 2.0 0.00 0.00 0.00 81 1011.7
20260509014642 49 158 0.0 2.0 0.00 0.00 0.00 81 1011.6
20260509014132 50 180 0.0 4.0 0.00 0.00 0.00 80 1011.8
20260509013112 50 158 3.0 7.0 0.00 0.00 0.00 79 1011.6
20260509012602 51 180 2.0 8.0 0.00 0.00 0.00 78 1011.6
20260509011542 51 203 2.0 7.0 0.00 0.00 0.00 76 1011.3
20260509011031 51 248 3.0 7.0 0.00 0.00 0.00 76 1011.0
20260509010521 51 248 5.0 7.0 0.00 0.00 0.00 76 1010.9
20260509010013 51 225 2.0 7.0 0.00 0.00 0.00 76 1010.9
20260509005501 51 270 4.0 7.0 0.00 0.00 0.00 76 1010.1
20260509004441 52 203 2.0 7.0 0.00 0.00 0.00 75 1010.2
20260509003930 52 248 2.0 7.0 0.00 0.00 0.00 74 1010.1
20260509003420 53 158 3.0 6.0 0.00 0.00 0.00 73 1010.2
20260509002911 53 203 0.0 6.0 0.00 0.00 0.00 72 1010.7
20260509002401 53 248 2.0 7.0 0.00 0.00 0.00 72 1010.6
20260509001340 53 248 3.0 7.0 0.00 0.00 0.00 72 1010.8
20260509000830 54 270 4.0 7.0 0.00 0.00 0.00 72 1010.9
20260509000320 54 248 3.0 7.0 0.00 0.00 0.00 72 1010.8
20260508235810 54 203 3.0 9.0 0.00 0.00 0.00 73 1010.7
20260508235259 54 225 4.0 9.0 0.00 0.00 0.00 73 1010.6
20260508234749 54 270 6.0 9.0 0.00 0.00 0.00 74 1010.5
20260508233729 54 248 2.0 8.0 0.00 0.00 0.00 75 1010.5
20260508233219 55 270 2.0 8.0 0.00 0.00 0.00 75 1010.4
20260508232709 55 225 3.0 9.0 0.00 0.00 0.00 75 1009.8
20260508232158 55 248 4.0 9.0 0.00 0.00 0.00 75 1010.1
20260508231650 55 225 4.0 11.0 0.00 0.00 0.00 75 1010.0
20260508231139 55 248 4.0 11.0 0.00 0.00 0.00 75 1010.1
20260508230629 55 203 4.0 7.0 0.00 0.00 0.00 75 1010.2
20260508230119 55 248 4.0 9.0 0.00 0.00 0.00 75 1010.0
20260508225609 55 248 3.0 9.0 0.00 0.00 0.00 73 1009.9
20260508225059 56 158 3.0 9.0 0.00 0.00 0.00 71 1009.9
20260508224548 56 180 4.0 9.0 0.00 0.00 0.00 69 1009.9
20260508224048 57 203 4.0 8.0 0.00 0.00 0.00 67 1009.8
20260508223027 57 203 2.0 8.0 0.00 0.00 0.00 69 1009.9
20260508222508 57 225 4.0 8.0 0.00 0.00 0.00 69 1009.6
20260508221958 57 203 5.0 8.0 0.00 0.00 0.00 69 1009.9
20260508221448 58 225 2.0 4.0 0.00 0.00 0.00 67 1009.7
20260508220937 58 225 2.0 7.0 0.00 0.00 0.00 66 1010.0
20260508220428 58 248 1.0 7.0 0.00 0.00 0.00 65 1010.1
20260508215407 58 180 3.0 6.0 0.00 0.00 0.00 61 1010.4
20260508214857 58 203 0.0 2.0 0.00 0.00 0.00 61 1010.1
20260508214347 58 225 0.0 2.0 0.00 0.00 0.00 60 1010.4
20260508213837 58 180 0.0 6.0 0.00 0.00 0.00 60 1010.0
20260508213326 58 180 2.0 6.0 0.00 0.00 0.00 59 1009.9
20260508212307 59 225 3.0 4.0 0.00 0.00 0.00 57 1010.1
20260508211247 59 225 2.0 6.0 0.00 0.00 0.00 56 1009.9
20260508210226 59 248 4.0 9.0 0.00 0.00 0.00 53 1009.7
20260508205206 59 225 4.0 7.0 0.00 0.00 0.00 53 1009.7
20260508204656 60 225 2.0 11.0 0.00 0.00 0.00 53 1009.7
20260508204146 60 203 4.0 11.0 0.00 0.00 0.00 52 1009.3
20260508203636 60 158 2.0 8.0 0.00 0.00 0.00 52 1009.3
20260508203126 60 225 4.0 9.0 0.00 0.00 0.00 52 1009.6
20260508202616 60 225 4.0 9.0 0.00 0.00 0.00 52 1009.5
20260508202105 60 203 6.0 9.0 0.00 0.00 0.00 52 1009.5
20260508201556 60 180 2.0 11.0 0.00 0.00 0.00 52 1009.6
20260508201045 60 180 4.0 13.0 0.00 0.00 0.00 51 1009.3
20260508200025 60 158 6.0 9.0 0.00 0.00 0.00 51 1009.7
20260508195515 60 203 5.0 9.0 0.00 0.00 0.00 52 1009.7
20260508195005 61 203 4.0 9.0 0.00 0.00 0.00 52 1009.8
20260508194454 61 203 2.0 11.0 0.00 0.00 0.00 52 1009.7
20260508193945 61 180 4.0 11.0 0.00 0.00 0.00 52 1009.6
20260508193434 61 180 4.0 8.0 0.00 0.00 0.00 53 1009.9
20260508192924 61 203 4.0 11.0 0.00 0.00 0.00 53 1010.1
20260508192414 61 158 4.0 11.0 0.00 0.00 0.00 52 1010.0
20260508191354 62 203 4.0 11.0 0.00 0.00 0.00 51 1010.1
20260508190844 62 203 4.0 13.0 0.00 0.00 0.00 52 1010.5
20260508190334 62 203 4.0 13.0 0.00 0.00 0.00 52 1010.4
20260508185824 62 225 5.0 11.0 0.00 0.00 0.00 53 1010.4
20260508184809 62 248 7.0 13.0 0.00 0.00 0.00 54 1010.5
20260508184253 62 225 8.0 13.0 0.00 0.00 0.00 56 1010.7
20260508183233 63 225 4.0 13.0 0.00 0.00 0.00 56 1010.6
20260508182722 64 248 6.0 13.0 0.00 0.00 0.00 55 1010.7
20260508182212 63 248 6.0 11.0 0.00 0.00 0.00 56 1010.8
20260508181709 64 248 7.0 13.0 0.00 0.00 0.00 56 1010.8
20260508180642 63 248 6.0 14.0 0.00 0.00 0.00 55 1010.6
20260508180132 62 248 4.0 16.0 0.00 0.00 0.00 56 1010.7
20260508175621 62 225 4.0 16.0 0.00 0.00 0.00 56 1010.7
20260508175112 62 270 5.0 11.0 0.00 0.00 0.00 55 1011.3
20260508174602 63 225 4.0 14.0 0.00 0.00 0.00 55 1011.0
20260508174051 64 248 5.0 14.0 0.00 0.00 0.00 54 1010.9
20260508173542 64 135 8.0 14.0 0.00 0.00 0.00 53 1011.2
20260508172521 64 180 7.0 13.0 0.00 0.00 0.00 52 1011.7
20260508172011 64 248 7.0 11.0 0.00 0.00 0.00 50 1011.7
20260508171501 64 248 5.0 11.0 0.00 0.00 0.00 50 1011.7
20260508165930 65 270 5.0 11.0 0.00 0.00 0.00 46 1012.2
20260508165421 64 248 6.0 13.0 0.00 0.00 0.00 46 1012.5
20260508164400 64 248 7.0 11.0 0.00 0.00 0.00 45 1012.2
20260508163850 64 203 5.0 11.0 0.00 0.00 0.00 46 1012.4
20260508163340 63 225 5.0 11.0 0.00 0.00 0.00 46 1012.5
20260508162830 63 293 7.0 11.0 0.00 0.00 0.00 47 1012.7
20260508161809 64 248 5.0 15.0 0.00 0.00 0.00 45 1012.7
20260508161259 63 248 4.0 14.0 0.00 0.00 0.00 45 1013.1
20260508160240 64 225 7.0 11.0 0.00 0.00 0.00 45 1013.2
20260508114824 52 158 0.0 0.0 0.00 0.00 0.00 83 1014.6
20260508114314 51 158 0.0 0.0 0.00 0.00 0.00 85 1014.9
20260508113804 49 135 0.0 0.0 0.00 0.00 0.00 89 1014.5
20260508113253 49 135 0.0 0.0 0.00 0.00 0.00 89 1014.3
20260508112744 48 135 0.0 0.0 0.00 0.00 0.00 89 1014.5
20260508112234 47 135 0.0 0.0 0.00 0.00 0.00 90 1014.4
20260508111213 46 90 0.0 0.0 0.00 0.00 0.00 90 1014.3
20260508110703 46 135 0.0 0.0 0.00 0.00 0.00 90 1014.2
20260508110153 46 158 0.0 0.0 0.00 0.00 0.00 91 1013.9
20260508105643 46 158 0.0 0.0 0.00 0.00 0.00 91 1014.2
20260508105133 46 90 0.0 0.0 0.00 0.00 0.00 91 1014.2
20260508104113 46 90 0.0 0.0 0.00 0.00 0.00 91 1014.0
20260508103602 47 90 0.0 0.0 0.00 0.00 0.00 91 1013.6
20260508103053 47 90 0.0 0.0 0.00 0.00 0.00 91 1013.9
20260508102542 47 90 0.0 4.0 0.00 0.00 0.00 91 1013.9
20260508102032 47 135 0.0 4.0 0.00 0.00 0.00 91 1013.7
20260508101522 48 90 0.0 0.0 0.00 0.00 0.00 91 1013.5
20260508101012 47 90 0.0 0.0 0.00 0.00 0.00 91 1013.9
20260508100502 47 68 0.0 0.0 0.00 0.00 0.00 91 1013.6
20260508094932 49 68 0.0 0.0 0.00 0.00 0.00 91 1013.7
20260508094418 49 90 0.0 0.0 0.00 0.00 0.00 91 1013.9
20260508093912 49 90 0.0 0.0 0.00 0.00 0.00 91 1013.5
20260508093401 49 68 0.0 0.0 0.00 0.00 0.00 91 1013.7
20260508092851 48 68 0.0 0.0 0.00 0.00 0.00 91 1013.6
20260508092341 48 68 0.0 0.0 0.00 0.00 0.00 91 1013.7
20260508091831 49 68 0.0 0.0 0.00 0.00 0.00 90 1013.6